Weather in Cabo de Santo Agostinho

Brazil     8°17′22″S   35°01′24″W
temp.,
°C
wind,
m/s
gust,
m/s
humid.,
%
clouds,
%
prec.,
mm/h
press.,
hPa
HPBL,
m
6 may, thu
thu600:00+23ssw249023 0.1 1014227
03:00+23ssw249021 0.1 1013213
06:00+23sw24885 0.0 1014247
09:00+28sse34645 0.0 10151193
12:00+29se445718 0.0 10131241
15:00+28se446432 0.0 1012923
18:00+24s24845 0.0 1013173
21:00+24s22875 0.2 1015121
7 may, fri
fri700:00+23sw22892 0.4 101543
03:00+22sw23925 0.4 101470
06:00+23sw22912 0.0 101591
09:00+28ese23680 0.0 1016951
12:00+29e44590 0.0 10151180
15:00+28ese44620 0.0 1013942
18:00+24se23800 0.0 1015155
21:00+24s128617 0.0 1016132
8 may, sat
sat800:00+23sw128919 0.8 101696
03:00+23ssw239236 1.6 1015173
06:00+23ssw249014 0.1 1016196
09:00+28se447130 0.4 10171051
12:00+28ese457010 1.9 1015907
15:00+27se457737 5.8 1014765
18:00+24sse35882 2.2 1015220
21:00+23s23900 2.2 1016180
9 may, sun
sun900:00+23sw249352 0.0 1015185
03:00+23sw369227 0.1 1014185
06:00+23ssw359058 0.4 1015264
09:00+27s45725 0.4 10161021
12:00+29se45646 0.0 10141112
15:00+28sse567119 0.0 1013929
18:00+24s37872 0.6 1014297
21:00+23ssw23882 0.7 1015193
10 may, mon
mon1000:00+23sw259337 0.3 1014173
03:00+22sw369529 1.4 1013222
06:00+23sw259133 1.0 1014313
09:00+28sse566513 1.1 10151309
12:00+29se566329 0.1 10131301
15:00+28sse67630 0.1 10121160
18:00+24s36814 0.0 1013266
21:00+23ssw36824 0.0 1015266